Location: Hopville
(44.8032°N, 123.1329°W)
Time: 04:48:06
(UTC+00:00)

Cosmos 2297 - Pass Details

Date: 24 January 2021
Orbit: 834 x 860 km, 71.0° (Epoch: 26 February)

Event Time Altitude Azimuth Distance (km) Brightness Sun altitude
Exits shadow 14:57:58 - 326° (NW) 3,216 6.2 -7.6°
Reaches altitude 10° 14:59:57 10° 320° (NW) 2,504 5.6 -7.3°
Maximum altitude 15:05:14 38° 254° (WSW) 1,281 4.3 -6.4°
Drops below altitude 10° 15:10:28 10° 188° (S) 2,487 6.3 -5.6°
Sets 15:13:03 0° 180° (S) 3,417 7.2 -5.1°
